Weather History for KWWD - March, 2014

Change the Weather History Date:

Saturday, March 22, 2014

  Actual Average Record
Temperature  
Mean Temperature 50 °F -  
Max Temperature 64 °F 50 °F 69 °F (2012)
Min Temperature 35 °F 36 °F 24 °F (2002)
Degree Days  
Heating Degree Days 16    
Moisture  
Dew Point 34 °F    
Average Humidity 53    
Maximum Humidity 87    
Minimum Humidity 36    
Precipitation  
Precipitation 0.00 in - - ()
Sea Level Pressure  
Sea Level Pressure 29.93 in    
Wind  
Wind Speed 8 mph (SW)    
Max Wind Speed 18 mph    
Max Gust Speed 28 mph    
Visibility 10 miles    
Events      
Averages and records for this station are not official NWS values.
T = Trace of Precipitation, MM = Missing Value Source: NWS Daily Summary

Daily Weather History Graph

Daily Weather History Graph

Search for Another Location

Airport or City:

Trip Planner

Search our weather history database for the weather conditions in past years. The results will help you decide how hot, cold, wet, or windy it might be!

Date:

Astronomy

Mar. 22, 2014 Rise Set
Actual Time 6:59 AM EDT 7:13 PM EDT
Civil Twilight 6:33 AM EDT 7:40 PM EDT
Nautical Twilight 6:02 AM EDT 8:11 PM EDT
Astronomical Twilight 5:30 AM EDT 8:43 PM EDT
Moon 12:28 AM EDT (3/22) 10:43 AM EDT (3/22)
Length of Visible Light 13h 06m
Length of Day
12h 13m
Waning Gibbous, 65% of the Moon is Illuminated
Mar 22
Waning Gibbous
Mar 23
Last Quarter
Mar 30
New
Apr 7
First Quarter
Apr 15
Full

Hourly Weather History & Observations

Time (EDT) Temp. Windchill Dew Point Humidity Pressure Visibility Wind Dir Wind Speed Gust Speed Precip Events Conditions
12:15 AM 35.6 °F - 30.2 °F 81% 30.05 in 10.0 mi Calm Calm - N/A   Clear
12:35 AM 35.6 °F - 30.2 °F 81% 30.04 in 10.0 mi Calm Calm - N/A   Clear
12:55 AM 35.6 °F 31.7 °F 30.2 °F 81% 30.04 in 9.0 mi SSE 4.6 mph - N/A   Clear
1:15 AM 37.4 °F 34.9 °F 33.8 °F 87% 30.03 in 10.0 mi SE 3.5 mph - N/A   Clear
1:35 AM 39.2 °F 37.0 °F 33.8 °F 81% 30.02 in 10.0 mi ESE 3.5 mph - N/A   Clear
1:55 AM 37.4 °F 32.8 °F 30.2 °F 75% 30.02 in 9.0 mi SE 5.8 mph - N/A   Clear
2:15 AM 39.2 °F 33.6 °F 33.8 °F 81% 30.01 in 10.0 mi SE 8.1 mph - N/A   Clear
2:35 AM 41.0 °F 35.8 °F 35.6 °F 81% 30.01 in 10.0 mi SE 8.1 mph - N/A   Clear
2:55 AM 42.8 °F 37.5 °F 35.6 °F 76% 29.99 in 10.0 mi SE 9.2 mph - N/A   Clear
3:15 AM 42.8 °F 37.0 °F 35.6 °F 76% 29.98 in 10.0 mi SE 10.4 mph - N/A   Clear
3:35 AM 42.8 °F 36.2 °F 35.6 °F 76% 29.97 in 10.0 mi SE 12.7 mph - N/A   Clear
3:55 AM 44.6 °F 38.8 °F 35.6 °F 71% 29.96 in 10.0 mi SE 11.5 mph - N/A   Clear
4:15 AM 44.6 °F 38.4 °F 35.6 °F 71% 29.95 in 10.0 mi SE 12.7 mph - N/A   Clear
4:35 AM 44.6 °F 38.8 °F 35.6 °F 71% 29.94 in 10.0 mi SSE 11.5 mph - N/A   Clear
4:55 AM 44.6 °F 37.8 °F 35.6 °F 71% 29.93 in 10.0 mi SSE 15.0 mph - N/A   Clear
5:15 AM 44.6 °F 38.4 °F 35.6 °F 71% 29.93 in 10.0 mi SSE 12.7 mph - N/A   Clear
5:35 AM 44.6 °F 38.1 °F 35.6 °F 71% 29.93 in 10.0 mi SSE 13.8 mph - N/A   Clear
5:55 AM 44.6 °F 39.2 °F 35.6 °F 71% 29.92 in 10.0 mi SSE 10.4 mph - N/A   Clear
6:15 AM 44.6 °F 39.2 °F 35.6 °F 71% 29.90 in 10.0 mi South 10.4 mph - N/A   Clear
6:35 AM 44.6 °F 39.2 °F 35.6 °F 71% 29.90 in 10.0 mi South 10.4 mph - N/A   Clear
6:55 AM 44.6 °F 39.7 °F 35.6 °F 71% 29.90 in 10.0 mi South 9.2 mph - N/A   Clear
7:15 AM 44.6 °F 38.8 °F 37.4 °F 76% 29.89 in 10.0 mi South 11.5 mph 16.1 mph N/A   Clear
7:35 AM 46.4 °F 41.1 °F 35.6 °F 66% 29.89 in 10.0 mi South 11.5 mph - N/A   Clear
7:55 AM 46.4 °F 40.7 °F 35.6 °F 66% 29.88 in 10.0 mi South 12.7 mph - N/A   Clear
8:15 AM 48.2 °F - 35.6 °F 62% 29.87 in 10.0 mi South 16.1 mph 20.7 mph N/A   Clear
8:35 AM 48.2 °F - 35.6 °F 62% 29.87 in 10.0 mi South 17.3 mph 23.0 mph N/A   Clear
8:55 AM 51.8 °F - 35.6 °F 54% 29.86 in 10.0 mi South 16.1 mph 23.0 mph N/A   Clear
9:15 AM 51.8 °F - 35.6 °F 54% 29.86 in 10.0 mi South 15.0 mph 21.9 mph N/A   Clear
9:35 AM 51.8 °F - 35.6 °F 54% 29.86 in 10.0 mi SSW 15.0 mph 19.6 mph N/A   Clear
9:55 AM 51.8 °F - 35.6 °F 54% 29.85 in 10.0 mi SSW 15.0 mph 21.9 mph N/A   Clear
10:15 AM 53.6 °F - 35.6 °F 51% 29.85 in 10.0 mi SSW 15.0 mph 21.9 mph N/A   Clear
10:35 AM 53.6 °F - 35.6 °F 51% 29.84 in 10.0 mi SSW 12.7 mph 18.4 mph N/A   Clear
10:55 AM 57.2 °F - 37.4 °F 48% 29.83 in 10.0 mi SSW 16.1 mph 21.9 mph N/A   Clear
11:15 AM 60.8 °F - 35.6 °F 39% 29.82 in 10.0 mi SW 18.4 mph 24.2 mph N/A   Clear
11:35 AM 60.8 °F - 35.6 °F 39% - 10.0 mi SW 18.4 mph 27.6 mph N/A   Clear
11:55 AM 60.8 °F - 35.6 °F 39% - 10.0 mi SW 16.1 mph 25.3 mph N/A   Clear
12:15 PM 62.6 °F - 37.4 °F 39% - 10.0 mi SW 17.3 mph 23.0 mph N/A   Clear
12:35 PM 62.6 °F - 37.4 °F 39% - 10.0 mi SW 16.1 mph 23.0 mph N/A   Scattered Clouds
12:55 PM 62.6 °F - 37.4 °F 39% - 10.0 mi WSW 13.8 mph - N/A   Partly Cloudy
1:15 PM 60.8 °F - 35.6 °F 39% - 10.0 mi WSW 12.7 mph 20.7 mph N/A   Clear
1:35 PM 62.6 °F - 35.6 °F 37% - 10.0 mi WSW 12.7 mph 20.7 mph N/A   Clear
1:55 PM 62.6 °F - 37.4 °F 39% - 10.0 mi WSW 13.8 mph 17.3 mph N/A   Clear
2:15 PM 62.6 °F - 35.6 °F 37% - 10.0 mi West 12.7 mph 19.6 mph N/A   Clear
2:35 PM 62.6 °F - 35.6 °F 37% - 10.0 mi West 11.5 mph 19.6 mph N/A   Clear
2:55 PM 62.6 °F - 37.4 °F 39% - 10.0 mi West 10.4 mph - N/A   Clear
3:15 PM 64.4 °F - 37.4 °F 37% - 10.0 mi West 13.8 mph 18.4 mph N/A   Clear
3:35 PM 62.6 °F - 37.4 °F 39% - 10.0 mi West 11.5 mph - N/A   Clear
3:55 PM 62.6 °F - 35.6 °F 37% - 10.0 mi West 11.5 mph - N/A   Clear
4:15 PM 62.6 °F - 35.6 °F 37% - 10.0 mi West 6.9 mph - N/A   Clear
4:35 PM 62.6 °F - 35.6 °F 37% - 10.0 mi West 9.2 mph 16.1 mph N/A   Clear
4:55 PM 62.6 °F - 35.6 °F 37% - 10.0 mi West 8.1 mph - N/A   Clear
5:15 PM 62.6 °F - 35.6 °F 37% - 10.0 mi West 9.2 mph - N/A   Clear
5:35 PM 62.6 °F - 35.6 °F 37% - 10.0 mi WSW 8.1 mph - N/A   Clear
5:55 PM 62.6 °F - 35.6 °F 37% - 10.0 mi West 6.9 mph - N/A   Clear
6:15 PM 62.6 °F - 35.6 °F 37% - 10.0 mi WSW 9.2 mph - N/A   Clear
6:35 PM 60.8 °F - 35.6 °F 39% - 10.0 mi West 8.1 mph - N/A   Clear
6:55 PM 60.8 °F - 33.8 °F 36% - 10.0 mi WSW 5.8 mph - N/A   Clear
7:15 PM 60.8 °F - 33.8 °F 36% - 10.0 mi WSW 5.8 mph - N/A   Clear
7:35 PM 59.0 °F - 33.8 °F 39% - 10.0 mi WSW 5.8 mph - N/A   Clear
7:55 PM 55.4 °F - 33.8 °F 44% - 10.0 mi West 4.6 mph - N/A   Clear
8:15 PM 55.4 °F - 33.8 °F 44% - 10.0 mi NW 4.6 mph - N/A   Clear
8:35 PM 55.4 °F - 33.8 °F 44% 29.90 in 10.0 mi NW 3.5 mph - N/A   Clear
8:55 PM 55.4 °F - 30.2 °F 38% 29.91 in 10.0 mi Calm Calm - N/A   Clear
9:15 PM 53.6 °F - 30.2 °F 41% 29.91 in 10.0 mi NNW 4.6 mph - N/A   Clear
9:35 PM 53.6 °F - 30.2 °F 41% 29.91 in 10.0 mi NNW 6.9 mph - N/A   Clear
9:55 PM 53.6 °F - 30.2 °F 41% 29.91 in 10.0 mi North 5.8 mph - N/A   Clear
10:15 PM 53.6 °F - 30.2 °F 41% 29.92 in 10.0 mi North 5.8 mph - N/A   Clear
10:35 PM 55.4 °F - 30.2 °F 38% 29.93 in 10.0 mi North 4.6 mph - N/A   Clear
10:55 PM 53.6 °F - 28.4 °F 38% 29.93 in 10.0 mi North 5.8 mph - N/A   Clear
11:15 PM 53.6 °F - 28.4 °F 38% 29.94 in 10.0 mi NNW 3.5 mph - N/A   Clear
11:35 PM 53.6 °F - 28.4 °F 38% 29.94 in 10.0 mi NNW 4.6 mph - N/A   Clear
11:55 PM 53.6 °F - 28.4 °F 38% 29.94 in 10.0 mi North 5.8 mph - N/A   Clear